Location: Lake Arresoe
(56.0000°N, 12.5000°E)
Time: 22:01:41
(UTC+02:00)

Okean 3 - Pass Details

Date: 18 August 2020
Orbit: 576 x 601 km, 82.5° (Epoch: 01 October)

Event Time Altitude Azimuth Distance (km) Brightness Sun altitude
Rises 22:45:54 0° 344° (NNW) 2,862 8.3 -14.7°
Reaches altitude 10° 22:48:09 10° 340° (NNW) 1,957 7.4 -14.9°
Maximum altitude 22:52:21 51° 265° (W) 760 4.2 -15.2°
Enters shadow 22:55:37 16° 193° (SSW) 1,598 5.3 -15.5°
